Simultaneous Nadir Overpasses (SNOs) Predictions

Prediction of SNOs between GOES-14 and NOAA-20 Satellite Orbit:

Table of predicted SNOs for the next 14.0 days since TLE Epoch: 5/14/2022
Index Date Time (GOES-14) GOES-14 Lat,Lon NOAA-20 Lat,Lon Distance(km) Time Diff (sec)
1 05/14/2022 08:30:46 0.07,-104.44 0.54,-106.57 243.17 80
2 05/15/2022 08:14:42 0.08,-104.44 -0.49,-102.04 274.26 80
3 05/16/2022 20:36:39 -0.05,-104.61 -0.64,-107.36 313.07 80
4 05/17/2022 20:15:14 -0.06,-104.60 0.33,-102.82 202.75 80
5 05/19/2022 08:37:01 0.04,-104.43 0.86,-108.09 417.64 80
6 05/20/2022 08:20:56 0.05,-104.43 -0.17,-103.57 99.47 80
7 05/21/2022 20:42:54 -0.03,-104.62 -0.96,-108.88 485.66 80
8 05/22/2022 20:21:28 -0.05,-104.61 0.02,-104.35 30.57 80
9 05/25/2022 08:24:30 0.03,-104.43 0.20,-105.07 73.64 80
10 05/26/2022 08:08:26 0.05,-104.44 -0.84,-100.55 444.06 80
11 05/27/2022 20:30:23 -0.01,-104.64 -0.28,-105.87 139.47 80
